When you browse on this site, cookies collect data to enhance your experience and personalize the content and advertising you see.
Visit our Privacy Policy to learn more. By continuing to use the site, you agree to this use of cookies and data.
  • In Hungary
  • List of Countries
  • For 7 days
  • Water Temperature
  • Satellite Maps
  • Weather Map
  • News
  • Weather Widgets
  • user-avatar
    Login

    Hourly Weather Lunel

    Today, 19 March, Tuesday

    Time Temperature Precipitation Wind Pressure Humidity
    00:00 +8°C° 0 mm 6 mps 766 mmHg 54%
    01:00 +8°C° 0 mm 6 mps 766 mmHg 55%
    02:00 +7°C° 0 mm 5 mps 766 mmHg 57%
    03:00 +7°C° 0 mm 5 mps 766 mmHg 58%
    04:00 +6°C° 0 mm 5 mps 766 mmHg 59%
    05:00 +6°C° 0 mm 5 mps 766 mmHg 60%
    06:00 +5°C° 0 mm 6 mps 766 mmHg 61%
    07:00 +7°C° 0 mm 6 mps 766 mmHg 55%
    08:00 +9°C° 0 mm 7 mps 766 mmHg 50%
    09:00 +10°C° 0 mm 8 mps 766 mmHg 44%
    10:00 +11°C° 0 mm 8 mps 766 mmHg 40%
    11:00 +12°C° 0 mm 7 mps 766 mmHg 36%
    12:00 +14°C° 0 mm 7 mps 766 mmHg 32%
    13:00 +15°C° 0 mm 6 mps 766 mmHg 32%
    14:00 +15°C° 0 mm 6 mps 766 mmHg 31%
    15:00 +15°C° 0 mm 6 mps 766 mmHg 31%
    16:00 +14°C° 0 mm 6 mps 766 mmHg 35%
    17:00 +13°C° 0 mm 5 mps 767 mmHg 38%
    18:00 +12°C° 0 mm 5 mps 767 mmHg 42%
    19:00 +10°C° 0 mm 5 mps 768 mmHg 44%
    20:00 +9°C° 0 mm 5 mps 768 mmHg 46%
    21:00 +8°C° 0 mm 6 mps 769 mmHg 48%
    22:00 +8°C° 0 mm 6 mps 769 mmHg 50%
    23:00 +7°C° 0 mm 6 mps 770 mmHg 53%

    Tomorrow, 20 March, Wednesday

    Time Temperature Precipitation Wind Pressure Humidity
    00:00 +7°C° 0 mm 5 mps 770 mmHg 55%
    01:00 +6°C° 0 mm 5 mps 770 mmHg 57%
    02:00 +6°C° 0 mm 5 mps 770 mmHg 58%
    03:00 +6°C° 0 mm 5 mps 770 mmHg 60%
    04:00 +5°C° 0 mm 5 mps 770 mmHg 61%
    05:00 +5°C° 0 mm 5 mps 770 mmHg 61%
    06:00 +5°C° 0 mm 5 mps 771 mmHg 62%
    07:00 +6°C° 0 mm 5 mps 771 mmHg 56%
    08:00 +8°C° 0 mm 5 mps 771 mmHg 50%
    09:00 +10°C° 0 mm 5 mps 771 mmHg 45%
    10:00 +12°C° 0 mm 5 mps 771 mmHg 41%
    11:00 +13°C° 0 mm 4 mps 771 mmHg 37%
    12:00 +16°C° 0 mm 3 mps 771 mmHg 33%
    13:00 +16°C° 0 mm 3 mps 770 mmHg 32%
    14:00 +16°C° 0 mm 3 mps 770 mmHg 31%
    15:00 +17°C° 0 mm 3 mps 770 mmHg 30%
    16:00 +14°C° 0 mm 3 mps 770 mmHg 35%
    17:00 +13°C° 0 mm 3 mps 770 mmHg 39%
    18:00 +12°C° 0 mm 3 mps 770 mmHg 44%
    19:00 +11°C° 0 mm 3 mps 771 mmHg 45%
    20:00 +10°C° 0 mm 3 mps 771 mmHg 47%
    21:00 +10°C° 0 mm 3 mps 772 mmHg 49%
    22:00 +9°C° 0 mm 3 mps 772 mmHg 50%
    23:00 +8°C° 0 mm 3 mps 772 mmHg 52%

    Day after tomorrow, 21 March, Thursday

    Time Temperature Precipitation Wind Pressure Humidity
    00:00 +8°C° 0 mm 3 mps 772 mmHg 53%
    01:00 +8°C° 0 mm 3 mps 772 mmHg 54%
    02:00 +7°C° 0 mm 3 mps 772 mmHg 55%
    03:00 +7°C° 0 mm 3 mps 772 mmHg 56%
    04:00 +7°C° 0 mm 3 mps 772 mmHg 57%
    05:00 +5°C° 0 mm 3 mps 772 mmHg 58%
    06:00 +5°C° 0 mm 3 mps 772 mmHg 58%
    07:00 +8°C° 0 mm 3 mps 772 mmHg 53%
    08:00 +10°C° 0 mm 3 mps 771 mmHg 48%
    09:00 +12°C° 0 mm 3 mps 771 mmHg 42%
    10:00 +15°C° 0 mm 2 mps 771 mmHg 38%
    11:00 +17°C° 0 mm 2 mps 771 mmHg 34%
    12:00 +20°C° 0 mm 1 mps 770 mmHg 30%
    13:00 +20°C° 0 mm 1 mps 770 mmHg 29%
    14:00 +20°C° 0 mm 1 mps 769 mmHg 27%
    15:00 +21°C° 0 mm 1 mps 769 mmHg 25%
    16:00 +18°C° 0 mm 2 mps 769 mmHg 29%
    17:00 +16°C° 0 mm 2 mps 770 mmHg 34%
    18:00 +15°C° 0 mm 2 mps 770 mmHg 38%
    19:00 +14°C° 0 mm 2 mps 770 mmHg 40%
    20:00 +13°C° 0 mm 2 mps 771 mmHg 41%
    21:00 +13°C° 0 mm 1 mps 771 mmHg 43%
    22:00 +12°C° 0 mm 1 mps 771 mmHg 47%
    23:00 +12°C° 0 mm 1 mps 771 mmHg 50%

    22 March, Friday

    Time Temperature Precipitation Wind Pressure Humidity
    00:00 +10°C° 0 mm 2 mps 771 mmHg 53%
    01:00 +10°C° 0 mm 2 mps 771 mmHg 56%
    02:00 +9°C° 0 mm 2 mps 771 mmHg 59%
    03:00 +9°C° 0 mm 2 mps 771 mmHg 62%
    04:00 +9°C° 0 mm 2 mps 771 mmHg 62%
    05:00 +8°C° 0 mm 2 mps 771 mmHg 62%
    06:00 +8°C° 0 mm 2 mps 771 mmHg 62%
    07:00 +10°C° 0 mm 2 mps 771 mmHg 55%
    08:00 +14°C° 0 mm 2 mps 770 mmHg 48%
    09:00 +16°C° 0 mm 2 mps 770 mmHg 41%
    10:00 +19°C° 0 mm 1 mps 770 mmHg 36%
    11:00 +21°C° 0 mm 1 mps 770 mmHg 32%
    12:00 +20°C° 0 mm 0 mps 769 mmHg 27%
    13:00 +22°C° 0 mm 1 mps 769 mmHg 26%
    14:00 +23°C° 0 mm 2 mps 769 mmHg 26%
    15:00 +23°C° 0 mm 2 mps 768 mmHg 25%
    16:00 +20°C° 0 mm 2 mps 768 mmHg 30%
    17:00 +18°C° 0 mm 3 mps 769 mmHg 35%
    18:00 +16°C° 0 mm 3 mps 769 mmHg 40%
    19:00 +15°C° 0 mm 2 mps 769 mmHg 41%
    20:00 +15°C° 0 mm 2 mps 770 mmHg 42%
    21:00 +14°C° 0 mm 1 mps 770 mmHg 43%
    22:00 +13°C° 0 mm 1 mps 770 mmHg 45%
    23:00 +13°C° 0 mm 1 mps 770 mmHg 46%

    23 March, Saturday

    Time Temperature Precipitation Wind Pressure Humidity
    00:00 +13°C° 0 mm 1 mps 770 mmHg 48%
    01:00 +12°C° 0 mm 1 mps 770 mmHg 50%
    02:00 +12°C° 0 mm 2 mps 770 mmHg 53%
    03:00 +10°C° 0 mm 2 mps 770 mmHg 55%
    04:00 +10°C° 0 mm 2 mps 770 mmHg 57%
    05:00 +10°C° 0 mm 2 mps 770 mmHg 59%
    06:00 +10°C° 0 mm 2 mps 770 mmHg 61%
    07:00 +13°C° 0 mm 2 mps 769 mmHg 55%
    08:00 +15°C° 0 mm 2 mps 769 mmHg 49%
    09:00 +17°C° 0 mm 2 mps 769 mmHg 43%
    10:00 +19°C° 0 mm 2 mps 769 mmHg 39%
    11:00 +21°C° 0 mm 1 mps 768 mmHg 35%
    12:00 +23°C° 0 mm 1 mps 768 mmHg 30%
    13:00 +23°C° 0 mm 2 mps 768 mmHg 30%
    14:00 +23°C° 0 mm 2 mps 767 mmHg 29%
    15:00 +23°C° 0 mm 2 mps 767 mmHg 29%
    16:00 +20°C° 0 mm 3 mps 767 mmHg 35%
    17:00 +18°C° 0 mm 3 mps 767 mmHg 42%
    18:00 +16°C° 0 mm 3 mps 767 mmHg 49%
    19:00 +15°C° 0 mm 2 mps 768 mmHg 51%
    20:00 +14°C° 0 mm 1 mps 768 mmHg 53%
    21:00 +14°C° 0 mm 1 mps 769 mmHg 55%
    22:00 +13°C° 0 mm 1 mps 768 mmHg 56%
    23:00 +12°C° 0 mm 0 mps 768 mmHg 57%

    24 March, Sunday

    Time Temperature Precipitation Wind Pressure Humidity
    00:00 +11°C° 0 mm 0 mps 768 mmHg 58%
    01:00 +12°C° 0 mm 1 mps 768 mmHg 60%
    02:00 +12°C° 0 mm 1 mps 768 mmHg 61%
    03:00 +11°C° 0 mm 1 mps 768 mmHg 62%
    04:00 +11°C° 0 mm 1 mps 768 mmHg 64%
    05:00 +11°C° 0 mm 1 mps 768 mmHg 65%
    06:00 +10°C° 0 mm 1 mps 768 mmHg 66%
    07:00 +13°C° 0 mm 1 mps 768 mmHg 59%
    08:00 +15°C° 0 mm 1 mps 768 mmHg 52%
    09:00 +18°C° 0 mm 1 mps 767 mmHg 45%
    10:00 +20°C° 0 mm 1 mps 767 mmHg 41%
    11:00 +21°C° 0 mm 1 mps 767 mmHg 37%
    12:00 +23°C° 0 mm 1 mps 767 mmHg 33%
    13:00 +23°C° 0 mm 2 mps 766 mmHg 33%
    14:00 +23°C° 0 mm 2 mps 766 mmHg 33%
    15:00 +24°C° 0 mm 3 mps 765 mmHg 32%
    16:00 +21°C° 0 mm 3 mps 765 mmHg 37%
    17:00 +19°C° 0 mm 2 mps 765 mmHg 41%
    18:00 +18°C° 0 mm 2 mps 765 mmHg 46%
    19:00 +17°C° 0 mm 2 mps 766 mmHg 47%
    20:00 +16°C° 0 mm 2 mps 766 mmHg 49%
    21:00 +16°C° 0 mm 2 mps 767 mmHg 51%
    22:00 +14°C° 0 mm 3 mps 767 mmHg 53%
    23:00 +14°C° 0 mm 4 mps 766 mmHg 55%
    Show more